917  
ASCA42 TJSJ 241910  
RWRPR  
PUERTO RICO/U.S. VIRGIN ISLANDS HOURLY WEATHER ROUNDUP  
NATIONAL WEATHER SERVICE SAN JUAN PR  
300 PM AST SUN MAR 24 2019  
 
PRZ001>002-007>008-010-242000-  
PUERTO RICO  
 
CITY SKY/WX TMP DP RH WIND PRES REMARKS
 
SAN JUAN LMM MOSUNNY 84 72 65 NE22 30.02F  
AGUADILLA CLOUDY 73 70 88 S3 30.07S  
CEIBA CLOUDY 82 70 65 E12 30.05F  

 
 
VIZ001>002-242000-  
U.S. VIRGIN ISLANDS  
 
CITY SKY/WX TMP DP RH WIND PRES REMARKS
 
CHARLOTTE AMA PTSUNNY 82 66 57 E16G25 30.04F  
CHRISTIANSTED MOSUNNY 84 70 61 E17G24 30.04F  

 
 
HOURLY WEATHER ROUNDUP FOR THE NEWS MEDIA  
 
CITY SKY/WX TMP DP RH WIND PRES REMARKS
 
ORLANDO FAIR 78 54 43 SE8 30.21F  
NEW YORK PTSUNNY 58 21 24 SW21 30.10F  
NEWARK PTSUNNY 59 15 18 SW13G24 30.08F  
CHICAGO CLOUDY 48 42 80 N6 30.06F  
HARTFORD FAIR 52 28 39 SW18 30.00F  
BOSTON FAIR 59 15 18 SW20G25 29.94F  
DALLAS PTSUNNY 77 62 59 SW9 30.01F  
PHILADELPHIA PTSUNNY 60 18 19 SW13 30.13F  
LOS ANGELES MOSUNNY 64 51 62 W7 30.19F  
WASHINGTON DC PTSUNNY 63 20 19 SW12G17 30.13F  
 
CLICK HERE TO GO TO PREVIOUS BULLETINS.

The Nexlab PR Page Main Text Page